Wind_Speed
56 57 55 50 46 44 39 35 35 34 32 28 28 25 20 15 13 13 14 16 19 22 26 30 33 39 43 49 55 56 55 55 53 54 57 59 58 58 57 57 60 61 58 63 72
55 58 59 56 53 49 46 45 41 37 34 30 27 25 24 23 23 21 18 14 14 17 19 22 26 32 41 48 53 53 55 56 54 57 60 63 63 63 61 62 64 65 64 64 70
49 52 54 55 58 57 51 48 46 44 41 37 35 34 32 35 36 31 27 24 24 23 25 28 33 37 39 41 47 52 53 54 55 57 58 60 62 64 64 64 66 67 69 70 72
47 49 48 48 50 53 55 50 47 44 41 40 40 40 42 44 46 42 37 36 35 35 34 38 42 44 41 39 40 46 48 48 54 60 63 63 61 63 65 64 68 70 73 76 75
46 45 48 49 49 49 51 52 53 49 44 42 41 42 42 45 48 51 48 45 42 35 35 43 42 37 33 35 36 39 44 49 57 61 64 64 64 63 66 65 66 67 68 71 71
44 47 49 48 49 48 46 47 47 49 49 46 45 43 43 45 48 52 51 52 51 46 43 44 41 36 33 29 27 32 39 46 52 52 53 54 59 61 63 61 59 63 63 68 69
45 44 46 51 45 45 46 45 42 44 48 49 47 49 46 45 47 50 53 56 59 58 55 53 50 50 43 38 31 27 29 28 34 38 45 50 52 51 51 53 52 52 54 57 64
43 43 42 46 50 48 46 47 45 43 44 46 48 48 48 46 48 50 53 55 59 62 64 62 61 57 53 48 42 38 34 33 36 45 47 46 44 41 38 37 37 40 46 50 57
41 42 41 42 48 49 47 46 46 44 44 43 46 49 47 50 48 49 53 56 60 64 67 68 69 67 66 59 57 49 45 45 44 46 43 40 33 29 28 29 27 27 33 39 44
39 39 43 41 43 49 47 45 46 46 43 43 44 47 48 48 51 50 53 57 58 62 67 69 71 73 72 70 64 64 58 53 50 51 48 37 34 34 28 22 19 18 21 26 34
35 38 38 42 43 45 47 44 43 45 48 41 43 45 49 52 51 50 54 57 58 61 64 68 71 72 76 77 73 68 67 63 59 57 49 41 36 31 22 20 16 10 9 13 22
32 35 35 37 42 42 46 43 41 43 46 43 41 45 46 52 53 55 53 57 58 56 63 64 69 74 75 79 80 76 70 69 67 59 44 43 42 34 22 22 24 20 14 2 12
34 35 36 36 40 40 41 40 39 44 45 45 44 42 42 50 55 58 59 54 58 57 61 64 65 72 76 78 80 80 75 70 71 63 56 36 42 33 27 19 27 21 24 19 16
34 35 35 39 38 39 41 39 39 42 45 47 46 45 44 48 55 58 63 59 54 59 61 63 64 66 73 78 78 82 80 74 70 70 61 50 35 41 28 15 17 14 11 15 11
32 35 36 39 37 40 41 39 42 43 46 48 51 47 45 47 51 62 63 65 52 59 62 66 63 63 68 74 76 78 81 80 73 69 67 56 38 26 25 26 16 8 10 1 6
34 36 37 39 35 36 39 40 45 44 48 50 50 51 51 49 47 62 67 64 55 56 62 64 64 62 63 68 72 74 78 78 76 70 62 58 49 31 27 23 33 12 9 24 13
33 34 36 38 36 34 38 42 44 48 49 52 51 51 52 51 47 57 64 65 73 52 59 60 63 62 56 62 66 69 73 74 74 70 64 59 55 42 34 25 23 29 28 22 20
33 33 31 36 34 37 41 40 46 48 50 51 52 53 54 54 50 56 60 61 71 69 64 64 63 59 57 57 63 63 67 70 70 70 65 57 52 53 44 36 30 17 19 25 28
36 34 32 36 38 39 38 41 44 46 50 52 53 55 56 58 59 57 60 63 72 73 57 63 63 60 52 56 61 58 62 65 66 68 65 62 57 48 47 41 40 33 22 14 21
39 40 36 36 37 41 40 43 46 49 49 51 53 54 57 61 58 59 64 63 70 74 69 69 71 62 55 53 55 57 58 62 62 62 65 61 60 53 49 43 41 39 32 21 20
40 40 39 40 39 40 40 45 48 49 55 55 53 53 55 59 64 63 62 65 74 71 69 69 70 68 57 50 54 53 56 57 59 59 61 62 60 56 49 44 37 37 36 32 24
43 44 46 47 47 46 46 48 48 52 54 58 59 59 61 65 64 65 69 65 76 75 72 74 73 66 63 52 49 52 56 53 56 56 58 58 59 57 52 47 41 35 28 26 28
47 49 50 50 51 55 53 54 56 57 57 57 60 65 62 63 62 60 66 70 74 80 78 79 76 73 62 51 55 53 52 55 53 56 56 54 55 58 54 53 45 39 35 29 24
52 51 55 56 53 55 57 59 62 65 62 64 67 69 65 62 64 63 67 73 74 83 85 81 86 76 64 51 57 50 49 54 55 57 59 50 53 55 54 54 53 50 38 35 33
56 56 59 56 58 58 59 62 64 63 64 67 69 70 66 66 70 74 76 76 76 80 85 87 91 76 67 54 50 51 54 53 55 60 58 51 52 53 55 54 58 56 50 42 38
60 61 61 59 62 63 68 71 69 68 71 73 76 74 75 77 76 76 80 80 81 84 87 90 95 79 72 57 56 56 59 60 54 56 58 54 54 53 53 55 58 60 57 54 50
68 66 65 63 65 67 70 71 73 75 76 83 82 81 85 86 84 87 82 80 78 85 90 91 93 94 65 63 59 60 63 63 65 56 59 58 58 56 56 61 61 62 63 59 60
Wind_Direction
52 50 47 45 46 47 48 52 55 56 53 53 50 45 39 29 9 333 317 308 302 294 288 284 279 276 273 275 281 283 281 281 282 281 280 278 276 273 271 263 262 256 247 239 241
52 51 50 49 47 48 51 52 51 47 44 39 35 34 35 32 22 16 10 355 337 326 320 310 301 295 292 286 284 283 282 282 281 280 279 277 275 272 270 266 259 257 251 243 240
51 49 47 46 46 46 46 44 48 50 48 47 43 41 37 30 25 15 9 1 353 342 329 321 317 307 294 290 281 280 281 282 286 286 281 281 278 275 270 265 260 255 249 245 241
50 49 49 45 42 43 43 43 43 43 44 42 40 41 44 40 35 30 23 13 -0 349 339 323 316 314 302 287 277 277 278 287 286 287 288 287 284 278 270 264 259 254 248 245 241
48 47 47 44 43 41 41 39 38 35 36 36 38 38 37 37 35 30 28 25 16 359 344 339 332 325 314 300 282 276 278 281 280 282 283 285 284 277 272 267 263 261 260 254 251
45 42 41 42 39 39 38 36 37 34 32 29 27 29 31 32 32 29 24 25 22 17 8 2 3 357 353 338 306 287 280 282 285 290 293 292 286 281 280 277 271 266 260 253 248
35 37 36 33 36 33 33 31 30 30 30 28 24 22 24 25 27 27 24 23 24 21 19 14 14 19 13 6 357 327 309 308 305 306 305 300 299 296 287 280 274 266 259 252 241
27 26 28 27 27 26 26 26 24 25 23 22 23 19 20 22 22 22 22 19 21 21 22 21 19 16 17 18 9 4 354 344 337 328 323 318 313 300 294 289 280 266 253 244 238
23 21 20 14 19 19 19 19 21 19 20 16 16 16 16 17 20 19 19 18 18 18 20 20 22 20 17 15 17 11 2 357 348 341 339 329 327 328 317 302 287 273 252 241 234
16 16 15 9 10 13 11 11 16 16 15 13 8 9 11 13 17 17 17 15 17 14 14 16 18 19 19 16 14 14 11 5 358 357 350 350 349 344 337 313 299 293 269 245 230
10 9 9 9 3 5 7 5 5 11 13 11 7 6 8 8 10 13 16 13 16 14 12 10 12 14 15 16 15 14 13 9 6 8 4 7 4 352 358 359 350 344 296 250 219
5 1 5 2 359 358 4 3 6 7 6 6 8 2 3 8 6 9 10 13 13 11 10 9 6 9 12 12 13 14 13 10 9 15 12 14 14 4 12 31 35 33 52 103 184
0 357 357 355 352 355 360 3 2 6 4 2 4 360 1 0 4 4 5 5 8 11 9 8 4 5 7 9 8 11 14 12 10 18 21 17 4 9 35 44 46 43 54 79 121
356 356 354 352 351 347 357 3 4 4 359 1 360 1 360 355 360 1 2 3 1 6 8 7 7 1 4 5 5 7 9 13 12 15 26 25 8 14 21 59 61 34 35 31 7
344 350 350 349 349 346 354 3 4 3 1 4 5 3 2 357 358 0 1 6 357 358 1 3 5 358 357 2 3 3 6 9 13 14 20 29 22 16 11 6 32 48 339 249 228
346 345 345 346 346 344 351 355 355 357 358 357 359 2 0 359 358 359 2 7 353 347 352 354 2 357 353 356 -0 0 2 4 9 13 16 25 29 27 349 355 349 311 324 348 214
338 340 340 343 347 342 349 350 351 351 353 352 354 355 356 356 349 351 358 2 3 349 350 353 354 355 353 348 354 358 359 0 4 9 12 16 22 22 20 3 331 319 306 325 344
331 334 333 335 337 339 343 347 346 347 350 353 352 351 355 353 345 344 350 355 356 1 356 354 349 352 352 349 346 353 356 356 357 2 8 12 11 17 11 10 9 325 266 283 307
324 330 331 329 330 333 339 339 338 341 344 347 347 349 349 350 348 341 340 344 351 354 356 352 350 348 341 347 348 344 351 352 352 353 360 5 8 5 12 5 3 5 9 330 316
321 322 330 325 323 328 332 329 334 337 338 338 341 342 342 346 350 345 341 338 342 347 351 350 350 350 340 335 343 341 342 347 348 347 350 355 360 1 2 8 5 359 355 357 324
312 313 317 320 321 321 325 324 329 333 336 336 336 339 340 342 346 346 346 340 337 341 344 344 347 348 346 332 331 332 334 338 341 343 343 345 350 354 357 358 358 3 354 341 340
307 306 311 316 314 319 320 324 327 329 330 335 335 335 334 334 340 344 346 340 340 339 338 339 340 341 344 338 327 329 328 326 335 337 338 338 340 344 348 354 353 347 350 355 329
301 304 304 310 312 316 319 316 318 323 323 326 328 331 332 334 337 336 340 338 339 341 336 336 335 338 336 331 330 322 323 323 325 330 332 331 332 333 336 339 346 345 339 329 344
294 297 301 309 310 311 314 314 317 317 318 323 324 328 329 329 330 330 331 334 335 336 339 336 335 333 332 322 315 320 319 318 316 319 324 325 323 325 325 328 330 333 332 328 320
293 293 299 303 304 307 309 313 314 315 317 319 320 324 324 324 325 324 325 327 329 331 335 336 337 331 334 322 310 319 318 315 313 311 317 318 319 316 317 320 322 324 322 321 317
292 293 295 297 301 304 308 312 314 312 313 314 318 319 320 322 323 321 319 320 322 326 328 332 333 331 326 317 310 311 309 317 313 308 312 314 312 310 313 313 315 318 314 314 316
293 293 293 293 297 302 305 307 308 309 310 313 317 319 320 321 323 322 319 317 322 324 327 329 332 334 318 314 314 311 309 308 311 305 307 309 308 307 306 308 310 311 311 310 310
Height
10769 10764 10758 10753 10748 10743 10739 10736 10734 10732 10729 10726 10723 10719 10717 10714 10711 10708 10706 10704 10701 10698 10695 10691 10688 10683 10678 10673 10668 10664 10659 10656 10654 10649 10644 10641 10639 10636 10636 10635 10630 10630 10637 10640 10641
10775 10770 10765 10761 10756 10751 10746 10743 10740 10737 10734 10731 10727 10723 10720 10717 10714 10710 10706 10701 10697 10693 10688 10683 10677 10671 10665 10660 10655 10651 10647 10643 10640 10636 10630 10624 10621 10619 10618 10615 10612 10612 10618 10621 10619
10781 10776 10772 10767 10764 10759 10754 10750 10746 10741 10738 10734 10730 10725 10721 10717 10713 10708 10704 10700 10695 10689 10683 10676 10669 10662 10656 10649 10642 10639 10634 10630 10625 10620 10614 10609 10603 10599 10596 10593 10592 10592 10592 10595 10600
10787 10782 10777 10773 10768 10764 10760 10755 10751 10746 10742 10738 10733 10728 10724 10720 10715 10709 10704 10697 10691 10684 10677 10668 10659 10649 10641 10635 10630 10626 10623 10620 10613 10605 10599 10591 10587 10578 10571 10571 10566 10564 10566 10568 10576
10792 10787 10782 10778 10773 10769 10763 10758 10754 10750 10745 10741 10736 10731 10725 10720 10714 10708 10703 10697 10690 10681 10672 10660 10649 10638 10630 10622 10616 10614 10611 10608 10601 10593 10583 10575 10566 10555 10547 10545 10543 10543 10545 10548 10555
10795 10791 10786 10781 10777 10772 10767 10763 10758 10753 10749 10743 10738 10733 10726 10720 10713 10709 10703 10695 10687 10678 10668 10656 10642 10631 10622 10615 10609 10605 10602 10597 10586 10579 10569 10561 10546 10537 10529 10525 10523 10519 10520 10522 10530
10796 10792 10787 10784 10779 10775 10770 10766 10761 10756 10751 10745 10739 10734 10728 10721 10714 10708 10702 10694 10685 10675 10664 10652 10641 10631 10620 10612 10606 10599 10592 10588 10577 10568 10555 10542 10530 10520 10511 10503 10499 10497 10497 10499 10504
10797 10792 10789 10785 10781 10777 10773 10768 10763 10758 10752 10747 10741 10736 10729 10722 10714 10707 10700 10692 10683 10674 10663 10652 10641 10631 10620 10612 10601 10592 10584 10575 10565 10552 10541 10527 10516 10502 10492 10486 10482 10479 10478 10480 10487
10799 10796 10791 10786 10782 10777 10773 10769 10763 10758 10752 10747 10741 10736 10731 10723 10715 10707 10700 10692 10682 10672 10662 10652 10641 10632 10618 10609 10599 10589 10577 10565 10555 10543 10531 10515 10501 10491 10484 10477 10471 10468 10466 10468 10476
10801 10796 10792 10788 10783 10778 10772 10768 10763 10759 10752 10747 10742 10737 10732 10725 10717 10708 10700 10693 10683 10672 10662 10652 10643 10632 10620 10608 10597 10584 10572 10560 10548 10535 10518 10504 10494 10487 10480 10472 10466 10462 10460 10462 10466
10802 10798 10794 10789 10784 10779 10774 10769 10764 10759 10753 10747 10742 10736 10730 10723 10717 10709 10700 10691 10683 10674 10665 10654 10643 10634 10622 10610 10597 10584 10571 10558 10545 10530 10513 10502 10496 10487 10478 10470 10465 10461 10457 10458 10463
10802 10797 10794 10790 10785 10780 10775 10769 10763 10756 10751 10746 10740 10734 10727 10721 10714 10707 10699 10692 10682 10674 10665 10655 10644 10631 10621 10610 10598 10585 10573 10558 10543 10532 10517 10506 10500 10492 10483 10476 10470 10465 10462 10461 10465
10801 10796 10792 10789 10784 10780 10774 10768 10762 10756 10750 10744 10738 10732 10725 10719 10712 10706 10697 10689 10682 10672 10663 10652 10643 10632 10622 10612 10601 10589 10577 10562 10547 10537 10521 10511 10505 10500 10489 10485 10481 10475 10473 10473 10472
10800 10796 10792 10786 10781 10777 10772 10766 10760 10755 10749 10743 10736 10731 10724 10717 10710 10703 10695 10687 10679 10671 10664 10653 10643 10634 10624 10614 10602 10590 10578 10567 10553 10540 10527 10520 10513 10507 10498 10497 10492 10489 10485 10486 10489
10798 10794 10789 10783 10779 10774 10769 10764 10759 10754 10749 10742 10736 10729 10722 10717 10709 10702 10693 10683 10675 10669 10663 10654 10644 10634 10625 10614 10604 10593 10583 10571 10560 10547 10535 10528 10524 10517 10511 10507 10504 10499 10496 10495 10493
10796 10791 10786 10782 10777 10772 10767 10761 10757 10751 10745 10740 10734 10726 10720 10712 10706 10699 10691 10683 10675 10668 10661 10654 10645 10636 10625 10616 10606 10597 10587 10577 10566 10555 10549 10537 10533 10529 10523 10517 10514 10511 10506 10505 10503
10793 10789 10784 10780 10774 10769 10764 10759 10754 10748 10742 10735 10729 10722 10717 10711 10703 10696 10689 10681 10674 10664 10659 10652 10642 10635 10627 10619 10609 10601 10591 10582 10574 10566 10554 10546 10538 10535 10532 10525 10522 10517 10513 10510 10512
10788 10785 10781 10776 10771 10766 10761 10756 10750 10743 10737 10732 10725 10720 10714 10707 10699 10692 10684 10676 10669 10663 10654 10645 10639 10631 10624 10617 10609 10601 10593 10585 10577 10570 10563 10554 10546 10539 10531 10528 10524 10519 10516 10515 10519
10782 10780 10776 10772 10767 10762 10757 10753 10747 10740 10734 10727 10722 10715 10709 10700 10695 10688 10678 10673 10665 10659 10652 10646 10638 10631 10624 10617 10609 10601 10592 10585 10578 10571 10566 10558 10551 10544 10536 10528 10522 10520 10519 10518 10520
10776 10770 10770 10765 10762 10757 10752 10747 10742 10735 10728 10722 10717 10710 10703 10697 10691 10685 10675 10667 10659 10653 10647 10641 10633 10626 10620 10614 10607 10600 10592 10584 10578 10571 10564 10561 10555 10547 10539 10531 10524 10518 10516 10519 10520
10770 10764 10763 10760 10754 10750 10746 10741 10734 10728 10722 10715 10709 10704 10697 10692 10683 10678 10672 10664 10655 10646 10640 10635 10627 10622 10614 10609 10603 10597 10590 10583 10575 10570 10564 10557 10554 10549 10544 10538 10531 10524 10518 10515 10516
10765 10759 10754 10753 10747 10742 10737 10732 10727 10721 10716 10710 10704 10697 10691 10686 10679 10671 10665 10658 10651 10642 10634 10626 10621 10614 10608 10601 10596 10590 10584 10579 10573 10566 10561 10554 10550 10545 10541 10538 10534 10529 10525 10521 10516
10760 10751 10745 10743 10741 10735 10727 10722 10719 10713 10706 10701 10695 10691 10683 10676 10671 10662 10657 10650 10643 10635 10628 10620 10612 10605 10597 10593 10586 10580 10576 10571 10566 10561 10556 10551 10544 10540 10536 10531 10530 10527 10523 10519 10515
10752 10749 10739 10734 10728 10726 10724 10715 10711 10705 10698 10693 10686 10681 10675 10666 10661 10657 10651 10642 10633 10625 10619 10612 10602 10596 10589 10585 10578 10569 10564 10560 10557 10552 10547 10545 10540 10531 10528 10525 10520 10519 10517 10515 10512
10740 10739 10734 10731 10721 10716 10712 10706 10701 10697 10688 10682 10677 10671 10665 10659 10654 10645 10637 10634 10625 10617 10609 10604 10594 10584 10577 10571 10569 10560 10551 10549 10545 10539 10537 10532 10529 10524 10517 10514 10509 10506 10503 10502 10500
10729 10725 10725 10721 10710 10705 10700 10693 10690 10685 10681 10675 10665 10661 10654 10649 10643 10635 10628 10618 10612 10605 10597 10589 10584 10575 10565 10556 10555 10551 10541 10536 10530 10526 10524 10520 10514 10511 10506 10501 10497 10492 10488 10484 10482
10713 10714 10712 10709 10699 10692 10686 10682 10677 10671 10668 10659 10654 10648 10639 10633 10628 10621 10613 10605 10597 10591 10583 10574 10567 10562 10555 10543 10540 10536 10527 10522 10516 10511 10507 10503 10498 10495 10490 10485 10480 10476 10470 10467 10462